{"data":{"norad_id":53803,"intl_designator":"2022-111AG","name":"STARLINK-4727","alt_names":[],"object_type":"PAYLOAD","status":"ACTIVE","operator":null,"country":"US","launch_date":"2022-09-11","launch_site_code":"AFETR","launch_vehicle":null,"mission":null,"orbit_class":"UNKNOWN","rcs_meters":null,"size_class":null,"mass_kg":null,"dimensions":null,"purposes":["comms"],"wikipedia_slug":null,"has_3d_model":false,"image_url":null,"decayed_at":null,"tle_current":{"epoch":"2026-05-25T01:09:15.375168Z","epoch_age_seconds":74848,"freshness":"FRESH","line1":"1 53803U 22111AG  26145.04809462  .00000201  00000+0  30674-4 0  9993","line2":"2 53803  53.2165 266.3768 0000762  94.4692 265.6387 15.08836882205553","mean_motion":15.08836882,"eccentricity":7.62e-5,"inclination_deg":53.2165,"raan_deg":266.3768,"arg_perigee_deg":94.4692,"mean_anomaly_deg":265.6387,"bstar":3.0674e-5,"rev_number":20555,"period_min":95.43775189875,"perigee_km":539.22577624728,"apogee_km":540.280062671,"semimajor_km":6917.8899194591,"source":"CELESTRAK","updated_at":"2026-05-25T13:38:17.566256Z"}}}